Location: Fours
(44.3167°N, 6.7000°E)
Time: 21:48:01
(UTC+00:00)

SJ-11-01 - Pass Details

Date: 16 October 2021
Orbit: 685 x 700 km, 97.9° (Epoch: 29 November)

Event Time Altitude Azimuth Distance (km) Brightness Sun altitude
Rises 17:43:58 0° 160° (SSE) 3,039 7.4 -10.9°
Reaches altitude 10° 17:46:12 10° 158° (SSE) 2,129 6.6 -11.3°
Maximum altitude 17:50:51 74° 75° (ENE) 722 4.2 -12.1°
Drops below altitude 10° 17:55:33 10° 351° (N) 2,154 6.9 -13.0°
Sets 17:57:49 0° 349° (N) 3,078 7.8 -13.4°
